Showing default

BRO-12, 59108

Orbit data source: Space-Track

BRO-12, 59108 is a payload satellite owned by Unseen Labs (FR) in SSO that was launched on Mon, 04 Mar 2024 UTC via an FALCON 9 launch vehicle from the Air Force Western Test Range (AFWTR). Payload-class satellites include a variety of spacecraft equipped with specific instruments for various scientific and technological missions. These include communications satellites like Starlink; space stations such as the ISS; scientific satellites like the Hubble; Earth observation satellites from companies like Planet Labs, Umbra, and HawkEye 360; GPS; miniature CubeSats for education and research; and military/defense satellites.

Loading next visibility...
Identifier
59108, 2024-043L
Orbit
SSO
Country
Flag of FRFR
Related business
Manufacturer
GOMSpace
Mission
Operational Commercial Sigint
Bus & Motor
CUBESAT 8U, Unknown motor
Mass
15 kg wet, ~15 kg dry
Launch date (UTC)
2024-03-04 (2 years ago)
Launch vehicle
FALCON 9
Launch site
Air Force Western Test Range (AFWTR)
Object type
Payload
Rocket body
Debris
Shape & HBR
Box, 0.2 m
Radar Cross Section
0.100 m², Medium (>0.1 m² and < 1m²)

Expand to show TLE details & history
Last TLE update: 6 hours ago

TLE from 6 hours ago
0 BRO-12
1 59108U 24043L   26034.23951068  .00002447  00000-0  22108-3 0  9998
2 59108  97.8272 165.1756 0009774  82.6498 277.5834 14.96389039104604
Epoch: 2026-02-03T05:44Z
TLE epoch observation values (Epoch: 2026-02-03T05:44:53.722Z)
Latitude
Longitude
-54.47154°
Altitude
580.22 km
Speed
7.571 km/s
True Right ascension
11h 00m 42s
True Declination
0° 00' 00"
Sunlit
Object was in full shadow at epoch
Visualization orbit readout
Latitude
Unknown
Longitude
Unknown
Altitude
Unknown
Speed
Unknown
Apparent Right ascension
Unknown
Apparent Declination
Unknown
Sunlit
N/A
Visualization observer readout
Local Sidereal Time
13:52:50
Azimuth
Unknown
Elevation
Unknown
Doppler factor
Unknown
Orbital elements
Apogee altitude
581.876 km
Perigee altitude
568.284 km
Semi-major axis
6,953.217 km
Eccentricity
0.00098
Inclination
97.8272°
RAAN
165.1756°
Arg. of periapsis
82.6498°
True anomaly
277.47236°
Mean anomaly
277.5834°
Eccentric anomaly
277.52788°
Mean motion
3.74338 °/min
Orbital period
96.17 mins
BSTAR
0.00022108
Loading maneuver chart data...
Computing Atmospheric mass density...
Loading historical data...
Loading historical data...
Loading historical data...
Loading historical data...
Loading historical data...
Loading historical data...
Loading historical data...

Documentation

Showing up to 5 results
|